contact:dominique.lefevre@mio.osupytheas.fr, maurice.libes@osupytheas.fr, didier.mallarino@osupytheas.fr
Project:EMSO http://www.emso-fr.org/EMSO-France
Depth: 2436.0 m
Title:EMSO Ligure Ouest : Data MII capteur MICROCAT
DateTime_Computer,Latitude,Longitude,Temperature,Conductivity,Pressure,DateTime_Instrument
DateTime_Computer,Latitude,Longitude,degC,S m-1,dbar,DateTime_Instrument
2022-08-15T00:00:14Z,42.805,6.029,13.3013,4.60058,2470.577,2022-8-15T02:02:03Z
2022-08-15T00:03:17Z,42.805,6.029,13.3014,4.60052,2470.6,2022-8-15T02:05:06Z
2022-08-15T00:06:20Z,42.805,6.029,13.3011,4.60056,2470.577,2022-8-15T02:08:10Z
2022-08-15T00:09:23Z,42.805,6.029,13.3013,4.60056,2470.6,2022-8-15T02:11:13Z
2022-08-15T00:12:27Z,42.805,6.029,13.3014,4.60059,2470.577,2022-8-15T02:14:16Z
2022-08-15T00:15:30Z,42.805,6.029,13.3013,4.60059,2470.553,2022-8-15T02:17:19Z
2022-08-15T00:18:33Z,42.805,6.029,13.3009,4.60059,2470.563,2022-8-15T02:20:22Z
2022-08-15T00:21:36Z,42.805,6.029,13.3006,4.60051,2470.6,2022-8-15T02:23:25Z
2022-08-15T00:24:39Z,42.805,6.029,13.3017,4.60056,2470.591,2022-8-15T02:26:28Z
2022-08-15T00:27:42Z,42.805,6.029,13.3012,4.60062,2470.577,2022-8-15T02:29:31Z
2022-08-15T00:30:45Z,42.805,6.029,13.3009,4.60054,2470.567,2022-8-15T02:32:35Z
2022-08-15T00:33:48Z,42.805,6.029,13.3011,4.60050,2470.614,2022-8-15T02:35:38Z
2022-08-15T00:36:52Z,42.805,6.029,13.3014,4.60053,2470.577,2022-8-15T02:38:41Z
2022-08-15T00:39:55Z,42.805,6.029,13.3013,4.60050,2470.577,2022-8-15T02:41:44Z
2022-08-15T00:42:58Z,42.805,6.029,13.3014,4.60054,2470.6,2022-8-15T02:44:47Z
2022-08-15T00:46:01Z,42.805,6.029,13.3014,4.60057,2470.591,2022-8-15T02:47:50Z
2022-08-15T00:49:04Z,42.805,6.029,13.3014,4.60052,2470.53,2022-8-15T02:50:53Z
2022-08-15T00:52:07Z,42.805,6.029,13.3010,4.60059,2470.553,2022-8-15T02:53:56Z
2022-08-15T00:55:10Z,42.805,6.029,13.3010,4.60061,2470.6,2022-8-15T02:56:59Z
2022-08-15T00:58:13Z,42.805,6.029,13.3011,4.60057,2470.567,2022-8-15T03:00:03Z
2022-08-15T01:01:16Z,42.805,6.029,13.3012,4.60052,2470.553,2022-8-15T03:03:06Z
2022-08-15T01:04:20Z,42.805,6.029,13.3014,4.60052,2470.577,2022-8-15T03:06:09Z
2022-08-15T01:07:23Z,42.805,6.029,13.3013,4.60056,2470.544,2022-8-15T03:09:12Z
2022-08-15T01:10:26Z,42.805,6.029,13.3015,4.60054,2470.553,2022-8-15T03:12:15Z
2022-08-15T01:13:29Z,42.805,6.029,13.3012,4.60051,2470.591,2022-8-15T03:15:18Z
2022-08-15T01:16:32Z,42.805,6.029,13.3013,4.60052,2470.591,2022-8-15T03:18:21Z
2022-08-15T01:19:35Z,42.805,6.029,13.3011,4.60052,2470.577,2022-8-15T03:21:24Z
2022-08-15T01:22:38Z,42.805,6.029,13.3014,4.60054,2470.553,2022-8-15T03:24:28Z
2022-08-15T01:25:41Z,42.805,6.029,13.3011,4.60064,2470.577,2022-8-15T03:27:31Z
2022-08-15T01:28:45Z,42.805,6.029,13.3010,4.60058,2470.567,2022-8-15T03:30:34Z
2022-08-15T01:31:48Z,42.805,6.029,13.3013,4.60052,2470.507,2022-8-15T03:33:37Z
2022-08-15T01:34:51Z,42.805,6.029,13.3011,4.60052,2470.544,2022-8-15T03:36:40Z
2022-08-15T01:37:54Z,42.805,6.029,13.3014,4.60052,2470.483,2022-8-15T03:39:43Z
2022-08-15T01:40:57Z,42.805,6.029,13.3014,4.60057,2470.53,2022-8-15T03:42:46Z
2022-08-15T01:44:00Z,42.805,6.029,13.3013,4.60062,2470.567,2022-8-15T03:45:49Z
2022-08-15T01:47:03Z,42.805,6.029,13.3011,4.60052,2470.553,2022-8-15T03:48:53Z
2022-08-15T01:50:06Z,42.805,6.029,13.3010,4.60059,2470.567,2022-8-15T03:51:56Z
2022-08-15T01:53:10Z,42.805,6.029,13.3009,4.60056,2470.544,2022-8-15T03:54:59Z
2022-08-15T01:56:13Z,42.805,6.029,13.3012,4.60051,2470.53,2022-8-15T03:58:02Z
2022-08-15T01:59:16Z,42.805,6.029,13.3010,4.60050,2470.53,2022-8-15T04:01:05Z
2022-08-15T02:02:19Z,42.805,6.029,13.3011,4.60054,2470.544,2022-8-15T04:04:08Z
2022-08-15T02:05:22Z,42.805,6.029,13.3011,4.60050,2470.507,2022-8-15T04:07:11Z
2022-08-15T02:08:25Z,42.805,6.029,13.3011,4.60051,2470.507,2022-8-15T04:10:14Z
2022-08-15T02:11:28Z,42.805,6.029,13.3012,4.60054,2470.53,2022-8-15T04:13:17Z
2022-08-15T02:14:31Z,42.805,6.029,13.3011,4.60062,2470.53,2022-8-15T04:16:21Z
2022-08-15T02:17:34Z,42.805,6.029,13.3011,4.60063,2470.507,2022-8-15T04:19:24Z
2022-08-15T02:20:38Z,42.805,6.029,13.3015,4.60061,2470.52,2022-8-15T04:22:27Z
2022-08-15T02:23:41Z,42.805,6.029,13.3007,4.60058,2470.483,2022-8-15T04:25:30Z
2022-08-15T02:26:44Z,42.805,6.029,13.3015,4.60054,2470.507,2022-8-15T04:28:33Z
2022-08-15T02:29:47Z,42.805,6.029,13.3015,4.60055,2470.507,2022-8-15T04:31:36Z
2022-08-15T02:32:50Z,42.805,6.029,13.3013,4.60058,2470.52,2022-8-15T04:34:39Z
2022-08-15T02:35:53Z,42.805,6.029,13.3010,4.60049,2470.483,2022-8-15T04:37:42Z
2022-08-15T02:38:56Z,42.805,6.029,13.3014,4.60057,2470.474,2022-8-15T04:40:46Z
2022-08-15T02:41:59Z,42.805,6.029,13.3012,4.60056,2470.497,2022-8-15T04:43:49Z
2022-08-15T02:45:03Z,42.805,6.029,13.3012,4.60053,2470.52,2022-8-15T04:46:52Z
2022-08-15T02:48:06Z,42.805,6.029,13.3010,4.60052,2470.483,2022-8-15T04:49:55Z
2022-08-15T02:51:09Z,42.805,6.029,13.3013,4.60052,2470.46,2022-8-15T04:52:58Z
2022-08-15T02:54:12Z,42.805,6.029,13.3015,4.60048,2470.507,2022-8-15T04:56:01Z
2022-08-15T02:57:15Z,42.805,6.029,13.3012,4.60050,2470.52,2022-8-15T04:59:04Z
2022-08-15T03:00:18Z,42.805,6.029,13.3015,4.60062,2470.483,2022-8-15T05:02:07Z
2022-08-15T03:03:21Z,42.805,6.029,13.3010,4.60064,2470.46,2022-8-15T05:05:11Z
2022-08-15T03:06:24Z,42.805,6.029,13.3014,4.60062,2470.437,2022-8-15T05:08:14Z
2022-08-15T03:09:27Z,42.805,6.029,13.3008,4.60064,2470.497,2022-8-15T05:11:17Z
2022-08-15T03:12:31Z,42.805,6.029,13.3009,4.60058,2470.47,2022-8-15T05:14:20Z
2022-08-15T03:15:34Z,42.805,6.029,13.3010,4.60049,2470.45,2022-8-15T05:17:23Z
2022-08-15T03:18:37Z,42.805,6.029,13.3013,4.60049,2470.474,2022-8-15T05:20:26Z
2022-08-15T03:21:40Z,42.805,6.029,13.3012,4.60062,2470.437,2022-8-15T05:23:29Z
2022-08-15T03:24:43Z,42.805,6.029,13.3009,4.60061,2470.46,2022-8-15T05:26:32Z
2022-08-15T03:27:46Z,42.805,6.029,13.3018,4.60052,2470.46,2022-8-15T05:29:36Z
2022-08-15T03:30:49Z,42.805,6.029,13.3012,4.60053,2470.437,2022-8-15T05:32:39Z
2022-08-15T03:33:52Z,42.805,6.029,13.3011,4.60052,2470.46,2022-8-15T05:35:42Z
2022-08-15T03:36:56Z,42.805,6.029,13.3012,4.60064,2470.483,2022-8-15T05:38:45Z
2022-08-15T03:39:59Z,42.805,6.029,13.3011,4.60062,2470.483,2022-8-15T05:41:48Z
2022-08-15T03:43:02Z,42.805,6.029,13.3011,4.60062,2470.497,2022-8-15T05:44:51Z
2022-08-15T03:46:05Z,42.805,6.029,13.3011,4.60057,2470.46,2022-8-15T05:47:54Z
2022-08-15T03:49:08Z,42.805,6.029,13.3009,4.60057,2470.474,2022-8-15T05:50:57Z
2022-08-15T03:52:11Z,42.805,6.029,13.3010,4.60067,2470.483,2022-8-15T05:54:00Z
2022-08-15T03:55:14Z,42.805,6.029,13.3012,4.60057,2470.46,2022-8-15T05:57:04Z
2022-08-15T03:58:17Z,42.805,6.029,13.3014,4.60063,2470.437,2022-8-15T06:00:07Z
2022-08-15T04:01:21Z,42.805,6.029,13.3012,4.60059,2470.45,2022-8-15T06:03:10Z
2022-08-15T04:04:24Z,42.805,6.029,13.3014,4.60062,2470.437,2022-8-15T06:06:13Z
2022-08-15T04:07:27Z,42.805,6.029,13.3013,4.60059,2470.474,2022-8-15T06:09:16Z
2022-08-15T04:10:30Z,42.805,6.029,13.3015,4.60053,2470.497,2022-8-15T06:12:19Z
2022-08-15T04:13:33Z,42.805,6.029,13.3011,4.60056,2470.474,2022-8-15T06:15:22Z
2022-08-15T04:16:36Z,42.805,6.029,13.3011,4.60057,2470.464,2022-8-15T06:18:25Z
2022-08-15T04:19:39Z,42.805,6.029,13.3008,4.60053,2470.437,2022-8-15T06:21:29Z
2022-08-15T04:22:42Z,42.805,6.029,13.3015,4.60058,2470.46,2022-8-15T06:24:32Z
2022-08-15T04:25:46Z,42.805,6.029,13.3011,4.60062,2470.46,2022-8-15T06:27:35Z
2022-08-15T04:28:49Z,42.805,6.029,13.3012,4.60062,2470.46,2022-8-15T06:30:38Z
2022-08-15T04:31:52Z,42.805,6.029,13.3012,4.60057,2470.437,2022-8-15T06:33:41Z
2022-08-15T04:34:55Z,42.805,6.029,13.3013,4.60060,2470.483,2022-8-15T06:36:44Z
2022-08-15T04:37:58Z,42.805,6.029,13.3011,4.60057,2470.46,2022-8-15T06:39:47Z
2022-08-15T04:41:01Z,42.805,6.029,13.3009,4.60055,2470.483,2022-8-15T06:42:50Z
2022-08-15T04:44:04Z,42.805,6.029,13.3014,4.60058,2470.497,2022-8-15T06:45:54Z
2022-08-15T04:47:07Z,42.805,6.029,13.3010,4.60067,2470.437,2022-8-15T06:48:57Z
2022-08-15T04:50:11Z,42.805,6.029,13.3015,4.60061,2470.483,2022-8-15T06:52:00Z
2022-08-15T04:53:14Z,42.805,6.029,13.3011,4.60060,2470.46,2022-8-15T06:55:03Z
2022-08-15T04:56:17Z,42.805,6.029,13.3011,4.60064,2470.437,2022-8-15T06:58:06Z
2022-08-15T04:59:20Z,42.805,6.029,13.3014,4.60063,2470.483,2022-8-15T07:01:09Z
2022-08-15T05:02:23Z,42.805,6.029,13.3010,4.60057,2470.437,2022-8-15T07:04:12Z
2022-08-15T05:05:26Z,42.805,6.029,13.3010,4.60068,2470.483,2022-8-15T07:07:15Z
2022-08-15T05:08:29Z,42.805,6.029,13.3012,4.60062,2470.46,2022-8-15T07:10:19Z
2022-08-15T05:11:32Z,42.805,6.029,13.3014,4.60067,2470.474,2022-8-15T07:13:22Z
2022-08-15T05:14:35Z,42.805,6.029,13.3011,4.60060,2470.483,2022-8-15T07:16:25Z
2022-08-15T05:17:39Z,42.805,6.029,13.3014,4.60059,2470.483,2022-8-15T07:19:28Z
2022-08-15T05:20:42Z,42.805,6.029,13.3013,4.60061,2470.497,2022-8-15T07:22:31Z
2022-08-15T05:23:45Z,42.805,6.029,13.3014,4.60056,2470.483,2022-8-15T07:25:34Z
2022-08-15T05:26:48Z,42.805,6.029,13.3010,4.60056,2470.474,2022-8-15T07:28:37Z
2022-08-15T05:29:51Z,42.805,6.029,13.3007,4.60055,2470.497,2022-8-15T07:31:40Z
2022-08-15T05:32:54Z,42.805,6.029,13.3012,4.60056,2470.497,2022-8-15T07:34:44Z
2022-08-15T05:35:57Z,42.805,6.029,13.3009,4.60056,2470.474,2022-8-15T07:37:47Z
2022-08-15T05:39:00Z,42.805,6.029,13.3011,4.60055,2470.474,2022-8-15T07:40:50Z
2022-08-15T05:42:04Z,42.805,6.029,13.3014,4.60056,2470.497,2022-8-15T07:43:53Z
2022-08-15T05:45:07Z,42.805,6.029,13.3010,4.60055,2470.483,2022-8-15T07:46:56Z
2022-08-15T05:48:10Z,42.805,6.029,13.3011,4.60053,2470.53,2022-8-15T07:49:59Z
2022-08-15T05:51:13Z,42.805,6.029,13.3011,4.60054,2470.497,2022-8-15T07:53:02Z
2022-08-15T05:54:16Z,42.805,6.029,13.3012,4.60056,2470.483,2022-8-15T07:56:05Z
2022-08-15T05:57:19Z,42.805,6.029,13.3011,4.60061,2470.507,2022-8-15T07:59:08Z
2022-08-15T06:00:22Z,42.805,6.029,13.3014,4.60059,2470.507,2022-8-15T08:02:12Z
2022-08-15T06:03:25Z,42.805,6.029,13.3011,4.60058,2470.507,2022-8-15T08:05:15Z
2022-08-15T06:06:29Z,42.805,6.029,13.3014,4.60059,2470.507,2022-8-15T08:08:18Z
2022-08-15T06:09:32Z,42.805,6.029,13.3012,4.60057,2470.544,2022-8-15T08:11:21Z
2022-08-15T06:12:35Z,42.805,6.029,13.3011,4.60062,2470.507,2022-8-15T08:14:24Z
2022-08-15T06:15:38Z,42.805,6.029,13.3014,4.60055,2470.53,2022-8-15T08:17:27Z
2022-08-15T06:18:41Z,42.805,6.029,13.3011,4.60057,2470.53,2022-8-15T08:20:30Z
2022-08-15T06:21:44Z,42.805,6.029,13.3012,4.60062,2470.507,2022-8-15T08:23:33Z
2022-08-15T06:24:47Z,42.805,6.029,13.3011,4.60060,2470.544,2022-8-15T08:26:37Z
2022-08-15T06:27:50Z,42.805,6.029,13.3014,4.60059,2470.53,2022-8-15T08:29:40Z
2022-08-15T06:30:54Z,42.805,6.029,13.3016,4.60060,2470.53,2022-8-15T08:32:43Z
2022-08-15T06:33:57Z,42.805,6.029,13.3011,4.60057,2470.553,2022-8-15T08:35:46Z
2022-08-15T06:37:00Z,42.805,6.029,13.3015,4.60058,2470.544,2022-8-15T08:38:49Z
2022-08-15T06:40:03Z,42.805,6.029,13.3012,4.60064,2470.507,2022-8-15T08:41:52Z
2022-08-15T06:43:06Z,42.805,6.029,13.3016,4.60060,2470.544,2022-8-15T08:44:55Z
2022-08-15T06:46:09Z,42.805,6.029,13.3012,4.60058,2470.567,2022-8-15T08:47:58Z
2022-08-15T06:49:12Z,42.805,6.029,13.3017,4.60057,2470.553,2022-8-15T08:51:02Z
2022-08-15T06:52:15Z,42.805,6.029,13.3013,4.60064,2470.577,2022-8-15T08:54:05Z
2022-08-15T06:55:19Z,42.805,6.029,13.3014,4.60057,2470.53,2022-8-15T08:57:08Z
2022-08-15T06:58:22Z,42.805,6.029,13.3011,4.60056,2470.577,2022-8-15T09:00:11Z
2022-08-15T07:01:25Z,42.805,6.029,13.3008,4.60054,2470.567,2022-8-15T09:03:14Z
2022-08-15T07:04:28Z,42.805,6.029,13.3011,4.60057,2470.544,2022-8-15T09:06:17Z
2022-08-15T07:07:31Z,42.805,6.029,13.3011,4.60054,2470.544,2022-8-15T09:09:20Z
2022-08-15T07:10:34Z,42.805,6.029,13.3009,4.60057,2470.577,2022-8-15T09:12:23Z
2022-08-15T07:13:37Z,42.805,6.029,13.3012,4.60058,2470.553,2022-8-15T09:15:26Z
2022-08-15T07:16:40Z,42.805,6.029,13.3010,4.60053,2470.577,2022-8-15T09:18:30Z
2022-08-15T07:19:43Z,42.805,6.029,13.3010,4.60055,2470.563,2022-8-15T09:21:33Z
2022-08-15T07:22:47Z,42.805,6.029,13.3009,4.60058,2470.53,2022-8-15T09:24:36Z
2022-08-15T07:25:50Z,42.805,6.029,13.3010,4.60057,2470.553,2022-8-15T09:27:39Z
2022-08-15T07:28:53Z,42.805,6.029,13.3014,4.60062,2470.577,2022-8-15T09:30:42Z
2022-08-15T07:31:56Z,42.805,6.029,13.3012,4.60057,2470.6,2022-8-15T09:33:45Z
2022-08-15T07:34:59Z,42.805,6.029,13.3013,4.60059,2470.577,2022-8-15T09:36:48Z
2022-08-15T07:38:02Z,42.805,6.029,13.3012,4.60057,2470.6,2022-8-15T09:39:51Z
2022-08-15T07:41:05Z,42.805,6.029,13.3013,4.60054,2470.591,2022-8-15T09:42:55Z
2022-08-15T07:44:08Z,42.805,6.029,13.3011,4.60054,2470.6,2022-8-15T09:45:58Z
2022-08-15T07:47:12Z,42.805,6.029,13.3015,4.60055,2470.6,2022-8-15T09:49:01Z
2022-08-15T07:50:15Z,42.805,6.029,13.3015,4.60055,2470.577,2022-8-15T09:52:04Z
2022-08-15T07:53:18Z,42.805,6.029,13.3012,4.60054,2470.591,2022-8-15T09:55:07Z
2022-08-15T07:56:21Z,42.805,6.029,13.3013,4.60054,2470.6,2022-8-15T09:58:10Z
2022-08-15T07:59:24Z,42.805,6.029,13.3012,4.60054,2470.577,2022-8-15T10:01:13Z
2022-08-15T08:02:27Z,42.805,6.029,13.3014,4.60053,2470.567,2022-8-15T10:04:16Z
2022-08-15T08:05:30Z,42.805,6.029,13.3014,4.60055,2470.6,2022-8-15T10:07:20Z
2022-08-15T08:08:33Z,42.805,6.029,13.3012,4.60054,2470.567,2022-8-15T10:10:23Z
2022-08-15T08:11:37Z,42.805,6.029,13.3012,4.60052,2470.577,2022-8-15T10:13:26Z
2022-08-15T08:14:40Z,42.805,6.029,13.3012,4.60052,2470.577,2022-8-15T10:16:29Z
2022-08-15T08:17:43Z,42.805,6.029,13.3016,4.60053,2470.637,2022-8-15T10:19:32Z
2022-08-15T08:20:46Z,42.805,6.029,13.3011,4.60055,2470.6,2022-8-15T10:22:35Z
2022-08-15T08:23:49Z,42.805,6.029,13.3013,4.60058,2470.637,2022-8-15T10:25:38Z
2022-08-15T08:26:52Z,42.805,6.029,13.3011,4.60054,2470.6,2022-8-15T10:28:42Z
2022-08-15T08:29:55Z,42.805,6.029,13.3011,4.60053,2470.6,2022-8-15T10:31:45Z
2022-08-15T08:32:58Z,42.805,6.029,13.3011,4.60057,2470.624,2022-8-15T10:34:48Z
2022-08-15T08:36:02Z,42.805,6.029,13.3014,4.60051,2470.624,2022-8-15T10:37:51Z
2022-08-15T08:39:05Z,42.805,6.029,13.3014,4.60051,2470.614,2022-8-15T10:40:54Z
2022-08-15T08:42:08Z,42.805,6.029,13.3012,4.60052,2470.646,2022-8-15T10:43:57Z
2022-08-15T08:45:11Z,42.805,6.029,13.3013,4.60052,2470.614,2022-8-15T10:47:00Z
2022-08-15T08:48:14Z,42.805,6.029,13.3013,4.60055,2470.624,2022-8-15T10:50:03Z
2022-08-15T08:51:17Z,42.805,6.029,13.3010,4.60052,2470.661,2022-8-15T10:53:07Z
2022-08-15T08:54:20Z,42.805,6.029,13.3013,4.60052,2470.6,2022-8-15T10:56:10Z
2022-08-15T08:57:23Z,42.805,6.029,13.3015,4.60052,2470.637,2022-8-15T10:59:13Z
2022-08-15T09:00:27Z,42.805,6.029,13.3016,4.60054,2470.624,2022-8-15T11:02:16Z
2022-08-15T09:03:30Z,42.805,6.029,13.3014,4.60053,2470.6,2022-8-15T11:05:19Z
2022-08-15T09:06:33Z,42.805,6.029,13.3014,4.60053,2470.624,2022-8-15T11:08:22Z
2022-08-15T09:09:36Z,42.805,6.029,13.3014,4.60052,2470.614,2022-8-15T11:11:25Z
2022-08-15T09:12:39Z,42.805,6.029,13.3007,4.60053,2470.624,2022-8-15T11:14:28Z
2022-08-15T09:15:42Z,42.805,6.029,13.3010,4.60052,2470.6,2022-8-15T11:17:32Z
2022-08-15T09:18:45Z,42.805,6.029,13.3010,4.60054,2470.661,2022-8-15T11:20:35Z
2022-08-15T09:21:49Z,42.805,6.029,13.3014,4.60054,2470.624,2022-8-15T11:23:38Z
2022-08-15T09:24:52Z,42.805,6.029,13.3011,4.60053,2470.577,2022-8-15T11:26:41Z
2022-08-15T09:27:55Z,42.805,6.029,13.3014,4.60054,2470.624,2022-8-15T11:29:44Z
2022-08-15T09:30:58Z,42.805,6.029,13.3010,4.60054,2470.624,2022-8-15T11:32:47Z
2022-08-15T09:34:01Z,42.805,6.029,13.3014,4.60054,2470.624,2022-8-15T11:35:50Z
2022-08-15T09:37:04Z,42.805,6.029,13.3015,4.60054,2470.624,2022-8-15T11:38:53Z
2022-08-15T09:40:07Z,42.805,6.029,13.3015,4.60053,2470.637,2022-8-15T11:41:57Z
2022-08-15T09:43:10Z,42.805,6.029,13.3014,4.60054,2470.624,2022-8-15T11:45:00Z
2022-08-15T09:46:14Z,42.805,6.029,13.3011,4.60056,2470.646,2022-8-15T11:48:03Z
2022-08-15T09:49:17Z,42.805,6.029,13.3019,4.60056,2470.614,2022-8-15T11:51:06Z
2022-08-15T09:52:20Z,42.805,6.029,13.3014,4.60053,2470.637,2022-8-15T11:54:09Z
2022-08-15T09:55:23Z,42.805,6.029,13.3016,4.60053,2470.624,2022-8-15T11:57:12Z
2022-08-15T09:58:26Z,42.805,6.029,13.3015,4.60053,2470.624,2022-8-15T12:00:15Z
2022-08-15T10:01:29Z,42.805,6.029,13.3013,4.60055,2470.637,2022-8-15T12:03:18Z
2022-08-15T10:04:32Z,42.805,6.029,13.3013,4.60055,2470.614,2022-8-15T12:06:22Z
2022-08-15T10:07:35Z,42.805,6.029,13.3017,4.60057,2470.637,2022-8-15T12:09:25Z
2022-08-15T10:10:39Z,42.805,6.029,13.3012,4.60054,2470.661,2022-8-15T12:12:28Z
2022-08-15T10:13:42Z,42.805,6.029,13.3011,4.60052,2470.637,2022-8-15T12:15:31Z
2022-08-15T10:16:45Z,42.805,6.029,13.3011,4.60055,2470.637,2022-8-15T12:18:34Z
2022-08-15T10:19:48Z,42.805,6.029,13.3011,4.60053,2470.624,2022-8-15T12:21:37Z
2022-08-15T10:22:51Z,42.805,6.029,13.3011,4.60057,2470.637,2022-8-15T12:24:40Z
2022-08-15T10:25:54Z,42.805,6.029,13.3014,4.60052,2470.614,2022-8-15T12:27:43Z
2022-08-15T10:28:57Z,42.805,6.029,13.3014,4.60052,2470.637,2022-8-15T12:30:47Z
2022-08-15T10:32:00Z,42.805,6.029,13.3011,4.60053,2470.577,2022-8-15T12:33:50Z
2022-08-15T10:35:04Z,42.805,6.029,13.3017,4.60055,2470.6,2022-8-15T12:36:53Z
2022-08-15T10:38:07Z,42.805,6.029,13.3012,4.60054,2470.6,2022-8-15T12:39:56Z
2022-08-15T10:41:10Z,42.805,6.029,13.3014,4.60054,2470.624,2022-8-15T12:42:59Z
2022-08-15T10:44:13Z,42.805,6.029,13.3013,4.60057,2470.591,2022-8-15T12:46:02Z
2022-08-15T10:47:16Z,42.805,6.029,13.3011,4.60056,2470.591,2022-8-15T12:49:05Z
2022-08-15T10:50:19Z,42.805,6.029,13.3011,4.60055,2470.6,2022-8-15T12:52:08Z
2022-08-15T10:53:22Z,42.805,6.029,13.3011,4.60054,2470.6,2022-8-15T12:55:12Z
2022-08-15T10:56:25Z,42.805,6.029,13.3012,4.60055,2470.577,2022-8-15T12:58:15Z
2022-08-15T10:59:29Z,42.805,6.029,13.3015,4.60055,2470.614,2022-8-15T13:01:18Z
2022-08-15T11:02:32Z,42.805,6.029,13.3012,4.60057,2470.591,2022-8-15T13:04:21Z
2022-08-15T11:05:35Z,42.805,6.029,13.3011,4.60056,2470.567,2022-8-15T13:07:24Z
2022-08-15T11:08:38Z,42.805,6.029,13.3017,4.60054,2470.6,2022-8-15T13:10:27Z
2022-08-15T11:11:41Z,42.805,6.029,13.3011,4.60058,2470.577,2022-8-15T13:13:30Z
2022-08-15T11:14:44Z,42.805,6.029,13.3011,4.60066,2470.577,2022-8-15T13:16:33Z
2022-08-15T11:17:47Z,42.805,6.029,13.3009,4.60058,2470.553,2022-8-15T13:19:37Z
2022-08-15T11:20:50Z,42.805,6.029,13.3015,4.60052,2470.577,2022-8-15T13:22:40Z
2022-08-15T11:23:54Z,42.805,6.029,13.3011,4.60054,2470.591,2022-8-15T13:25:43Z
2022-08-15T11:26:57Z,42.805,6.029,13.3014,4.60057,2470.577,2022-8-15T13:28:46Z
2022-08-15T11:30:00Z,42.805,6.029,13.3015,4.60060,2470.6,2022-8-15T13:31:49Z
2022-08-15T11:33:03Z,42.805,6.029,13.3013,4.60053,2470.577,2022-8-15T13:34:52Z
2022-08-15T11:36:06Z,42.805,6.029,13.3007,4.60054,2470.577,2022-8-15T13:37:55Z
2022-08-15T11:39:09Z,42.805,6.029,13.3013,4.60052,2470.577,2022-8-15T13:40:58Z
2022-08-15T11:42:12Z,42.805,6.029,13.3012,4.60055,2470.553,2022-8-15T13:44:02Z
2022-08-15T11:45:15Z,42.805,6.029,13.3009,4.60057,2470.577,2022-8-15T13:47:05Z
2022-08-15T11:48:19Z,42.805,6.029,13.3009,4.60051,2470.577,2022-8-15T13:50:08Z
2022-08-15T11:51:22Z,42.805,6.029,13.3012,4.60054,2470.553,2022-8-15T13:53:11Z
2022-08-15T11:54:25Z,42.805,6.029,13.3013,4.60056,2470.544,2022-8-15T13:56:14Z
2022-08-15T11:57:28Z,42.805,6.029,13.3009,4.60057,2470.553,2022-8-15T13:59:17Z
2022-08-15T12:00:31Z,42.805,6.029,13.3013,4.60057,2470.563,2022-8-15T14:02:20Z
2022-08-15T12:03:34Z,42.805,6.029,13.3011,4.60053,2470.563,2022-8-15T14:05:24Z
2022-08-15T12:06:37Z,42.805,6.029,13.3009,4.60074,2470.553,2022-8-15T14:08:27Z
2022-08-15T12:09:40Z,42.805,6.029,13.3014,4.60064,2470.591,2022-8-15T14:11:30Z
2022-08-15T12:12:44Z,42.805,6.029,13.3015,4.60057,2470.553,2022-8-15T14:14:33Z
2022-08-15T12:15:47Z,42.805,6.029,13.3012,4.60070,2470.53,2022-8-15T14:17:36Z
2022-08-15T12:18:50Z,42.805,6.029,13.3008,4.60061,2470.567,2022-8-15T14:20:39Z
2022-08-15T12:21:53Z,42.805,6.029,13.3011,4.60057,2470.553,2022-8-15T14:23:42Z
2022-08-15T12:24:56Z,42.805,6.029,13.3011,4.60060,2470.544,2022-8-15T14:26:45Z
2022-08-15T12:27:59Z,42.805,6.029,13.3009,4.60055,2470.553,2022-8-15T14:29:48Z
2022-08-15T12:31:02Z,42.805,6.029,13.3009,4.60057,2470.567,2022-8-15T14:32:52Z
2022-08-15T12:34:05Z,42.805,6.029,13.3009,4.60062,2470.53,2022-8-15T14:35:55Z
2022-08-15T12:37:09Z,42.805,6.029,13.3012,4.60057,2470.507,2022-8-15T14:38:58Z
2022-08-15T12:40:12Z,42.805,6.029,13.3011,4.60057,2470.553,2022-8-15T14:42:01Z
2022-08-15T12:43:15Z,42.805,6.029,13.3010,4.60063,2470.493,2022-8-15T14:45:04Z
2022-08-15T12:46:18Z,42.805,6.029,13.3015,4.60064,2470.53,2022-8-15T14:48:07Z
2022-08-15T12:49:21Z,42.805,6.029,13.3009,4.60061,2470.544,2022-8-15T14:51:10Z
2022-08-15T12:52:24Z,42.805,6.029,13.3014,4.60062,2470.53,2022-8-15T14:54:14Z
2022-08-15T12:55:27Z,42.805,6.029,13.3013,4.60068,2470.53,2022-8-15T14:57:17Z
2022-08-15T12:58:30Z,42.805,6.029,13.3013,4.60067,2470.507,2022-8-15T15:00:20Z
2022-08-15T13:01:34Z,42.805,6.029,13.3010,4.60065,2470.507,2022-8-15T15:03:23Z
2022-08-15T13:04:37Z,42.805,6.029,13.3013,4.60074,2470.483,2022-8-15T15:06:26Z
2022-08-15T13:07:40Z,42.805,6.029,13.3012,4.60062,2470.493,2022-8-15T15:09:29Z
2022-08-15T13:10:43Z,42.805,6.029,13.3011,4.60067,2470.567,2022-8-15T15:12:32Z
2022-08-15T13:13:46Z,42.805,6.029,13.3011,4.60068,2470.53,2022-8-15T15:15:35Z
2022-08-15T13:16:49Z,42.805,6.029,13.3010,4.60061,2470.52,2022-8-15T15:18:39Z
2022-08-15T13:19:52Z,42.805,6.029,13.3011,4.60067,2470.52,2022-8-15T15:21:42Z
2022-08-15T13:22:55Z,42.805,6.029,13.3013,4.60061,2470.507,2022-8-15T15:24:45Z
2022-08-15T13:25:59Z,42.805,6.029,13.3015,4.60060,2470.52,2022-8-15T15:27:48Z
2022-08-15T13:29:02Z,42.805,6.029,13.3015,4.60056,2470.483,2022-8-15T15:30:51Z
2022-08-15T13:32:05Z,42.805,6.029,13.3009,4.60057,2470.483,2022-8-15T15:33:54Z
2022-08-15T13:35:08Z,42.805,6.029,13.3012,4.60052,2470.483,2022-8-15T15:36:57Z
2022-08-15T13:38:11Z,42.805,6.029,13.3011,4.60062,2470.52,2022-8-15T15:40:00Z
2022-08-15T13:41:14Z,42.805,6.029,13.3012,4.60056,2470.53,2022-8-15T15:43:04Z
2022-08-15T13:44:17Z,42.805,6.029,13.3013,4.60057,2470.474,2022-8-15T15:46:07Z
2022-08-15T13:47:20Z,42.805,6.029,13.3013,4.60059,2470.497,2022-8-15T15:49:10Z
2022-08-15T13:50:24Z,42.805,6.029,13.3011,4.60068,2470.497,2022-8-15T15:52:13Z
2022-08-15T13:53:27Z,42.805,6.029,13.3013,4.60062,2470.483,2022-8-15T15:55:16Z
2022-08-15T13:56:30Z,42.805,6.029,13.3008,4.60060,2470.474,2022-8-15T15:58:19Z
2022-08-15T13:59:33Z,42.805,6.029,13.3012,4.60062,2470.483,2022-8-15T16:01:22Z
2022-08-15T14:02:36Z,42.805,6.029,13.3011,4.60062,2470.483,2022-8-15T16:04:25Z
2022-08-15T14:05:39Z,42.805,6.029,13.3014,4.60066,2470.483,2022-8-15T16:07:29Z
2022-08-15T14:08:42Z,42.805,6.029,13.3013,4.60061,2470.46,2022-8-15T16:10:32Z
2022-08-15T14:11:45Z,42.805,6.029,13.3013,4.60061,2470.52,2022-8-15T16:13:35Z
2022-08-15T14:14:49Z,42.805,6.029,13.3012,4.60067,2470.483,2022-8-15T16:16:38Z
2022-08-15T14:17:52Z,42.805,6.029,13.3011,4.60069,2470.507,2022-8-15T16:19:41Z
2022-08-15T14:20:55Z,42.805,6.029,13.3009,4.60063,2470.483,2022-8-15T16:22:44Z
2022-08-15T14:23:58Z,42.805,6.029,13.3012,4.60059,2470.497,2022-8-15T16:25:47Z
2022-08-15T14:27:01Z,42.805,6.029,13.3015,4.60062,2470.437,2022-8-15T16:28:50Z
2022-08-15T14:30:04Z,42.805,6.029,13.3010,4.60060,2470.497,2022-8-15T16:31:54Z
2022-08-15T14:33:07Z,42.805,6.029,13.3012,4.60066,2470.497,2022-8-15T16:34:57Z
2022-08-15T14:36:11Z,42.805,6.029,13.3011,4.60059,2470.46,2022-8-15T16:38:00Z
2022-08-15T14:39:14Z,42.805,6.029,13.3008,4.60061,2470.46,2022-8-15T16:41:03Z
2022-08-15T14:42:17Z,42.805,6.029,13.3013,4.60059,2470.437,2022-8-15T16:44:06Z
2022-08-15T14:45:20Z,42.805,6.029,13.3010,4.60062,2470.46,2022-8-15T16:47:09Z
2022-08-15T14:48:23Z,42.805,6.029,13.3009,4.60064,2470.474,2022-8-15T16:50:12Z
2022-08-15T14:51:26Z,42.805,6.029,13.3011,4.60061,2470.483,2022-8-15T16:53:15Z
2022-08-15T14:54:29Z,42.805,6.029,13.3011,4.60059,2470.483,2022-8-15T16:56:19Z
2022-08-15T14:57:32Z,42.805,6.029,13.3010,4.60069,2470.437,2022-8-15T16:59:22Z
2022-08-15T15:00:36Z,42.805,6.029,13.3012,4.60057,2470.46,2022-8-15T17:02:25Z
2022-08-15T15:03:39Z,42.805,6.029,13.3012,4.60062,2470.483,2022-8-15T17:05:28Z
2022-08-15T15:06:42Z,42.805,6.029,13.3013,4.60061,2470.46,2022-8-15T17:08:31Z
2022-08-15T15:09:45Z,42.805,6.029,13.3013,4.60061,2470.437,2022-8-15T17:11:34Z
2022-08-15T15:12:48Z,42.805,6.029,13.3011,4.60058,2470.437,2022-8-15T17:14:37Z